This demonstration page uses our WeatherBlox Daily Observations layout. Learn more.

Left ArrowRight Arrow

39.08367, -84.50855

Hourly Observations for July 28, 2021

Temp ( °F °C ) Dew Point ( °F °C ) Humidity (%) Winds ( mph kmh ) Pressure ( in mb ) Visibility ( mi km ) Precip ( " mm )
12:53 am 00:53 Clear with Mist and Fog 68 20 67 19.4 96 96 N N/A 30.04 1017 6 10 N/A
1:53 am 01:53 Clear with Mist and Fog 68 20 67 19.4 96 96 N N/A 30.04 1017 6 10 N/A
2:53 am 02:53 Clear with Mist and Fog 68 20 67 19.4 96 96 N N/A 30.04 1017 3 4 N/A
3:00 am 03:00 Clear with Mist and Fog 67 19.4 66 18.9 97 97 N N/A 30.05 1018 5 8 N/A
3:14 am 03:14 Clear with Mist and Fog 67 19.4 66 18.9 97 97 N N/A 30.05 1018 2 3 N/A
3:27 am 03:27 Clear with Mist and Fog 66 18.9 65 18.3 96 96 N N/A 30.05 1018 4 6 N/A
3:49 am 03:49 Clear with Mist and Fog 66 19 64 18 94 94 N N/A 30.05 1018 2 3 N/A
3:53 am 03:53 Clear with Mist and Fog 67 19.4 66 18.9 97 97 N N/A 30.05 1018 1 2 N/A
4:01 am 04:01 Clear with Mist and Fog 67 19.4 66 18.9 97 97 N N/A 30.05 1018 3 5 N/A
4:07 am 04:07 Clear with Mist and Fog 66 18.9 66 18.9 100 100 N N/A 30.05 1018 2 3 N/A
4:18 am 04:18 Clear with Mist and Fog 67 19.4 66 18.9 97 97 N N/A 30.06 1018 1 1 N/A
4:24 am 04:24 Clear with Mist and Fog 66 18.9 65 18.3 96 96 N N/A 30.06 1018 3 4 N/A
4:30 am 04:30 Clear with Mist and Fog 66 18.9 65 18.3 96 96 N N/A 30.06 1018 1 1 N/A
4:41 am 04:41 Clear with Mist and Fog 65 18.3 65 18.3 100 100 N N/A 30.06 1018 2 3 N/A
4:45 am 04:45 Mostly Clear with Mist and Fog 66 18.9 65 18.3 96 96 N N/A 30.06 1018 3 5 N/A
4:53 am 04:53 Mostly Clear with Mist and Fog 66 18.9 65 18.3 96 96 N N/A 30.05 1018 4 6 N/A
5:24 am 05:24 Mostly Cloudy with Mist and Fog 66 18.9 65 18.3 96 96 N N/A 30.06 1018 4 6 N/A
5:53 am 05:53 Mostly Cloudy with Mist and Fog 66 18.9 65 18.3 96 96 N N/A 30.05 1018 4 6 N/A
6:07 am 06:07 Partly Cloudy with Mist and Fog 66 18.9 65 18.3 96 96 N N/A 30.06 1018 6 10 N/A
6:33 am 06:33 Clear with Mist and Fog 65 18.3 64 17.8 97 97 N N/A 30.07 1018 1 2 N/A
6:46 am 06:46 Sunny with Mist and Fog 66 18.9 65 18.3 96 96 N N/A 30.07 1018 2 3 N/A
6:53 am 06:53 Sunny with Mist and Fog 66 18.9 65 18.3 96 96 N N/A 30.07 1018 3 5 N/A
7:02 am 07:02 Partly Cloudy with Mist and Fog 64 17.8 63 17.2 96 96 ENE 3 6 30.07 1018 1 2 N/A
7:09 am 07:09 Sunny with Mist and Fog 65 18.3 64 17.8 97 97 N N/A 30.07 1018 3 5 N/A
7:53 am 07:53 Sunny with Mist and Fog 68 20 67 19.4 96 96 N N/A 30.08 1019 3 5 N/A
8:53 am 08:53 Sunny with Mist and Fog 72 22.2 69 20.6 91 91 N N/A 30.08 1019 6 10 N/A
9:53 am 09:53 Sunny 78 25.6 70 21.1 76 76 N N/A 30.07 1018 9 14 0.00 0.00
10:53 am 10:53 Sunny 82 27.8 71 21.7 69 69 E 3 6 30.05 1018 10 16 N/A
11:53 am 11:53 Mostly Cloudy 85 29.4 70 21.1 61 61 WNW 8 13 30.05 1018 10 16 N/A
12:53 pm 12:53 Mostly Sunny 87 30.6 69 20.6 55 55 VRB 3 6 30.06 1018 10 16 N/A
1:53 pm 13:53 Mostly Sunny 88 31.1 70 21.1 55 55 W 10 17 30.04 1017 10 16 N/A
2:53 pm 14:53 Mostly Sunny 88 31.1 69 20.6 54 54 WSW 7 11 30.02 1017 10 16 N/A
3:53 pm 15:53 Mostly Sunny 90 32.2 67 19.4 47 47 N N/A 30.01 1016 10 16 N/A
4:53 pm 16:53 Mostly Sunny 90 32.2 68 20 48 48 NW 3 6 30.00 1016 10 16 N/A
5:53 pm 17:53 Mostly Cloudy 90 32.2 69 20.6 50 50 NW 6 9 30.00 1016 10 16 N/A
6:53 pm 18:53 Mostly Sunny 89 31.7 68 20 50 50 WNW 3 6 30.00 1016 10 16 N/A
7:53 pm 19:53 Mostly Sunny 86 30 69 20.6 57 57 WNW 7 11 29.99 1016 10 16 N/A
8:53 pm 20:53 Sunny 84 28.9 68 20 59 59 NW 6 9 29.99 1016 10 16 N/A
9:53 pm 21:53 Clear 74 23.3 70 21.1 88 88 N N/A 30.00 1016 10 16 N/A
9:55 pm 21:55 Clear 75 23.9 70 21.1 84 84 N N/A 29.99 1016 10 16 N/A
10:53 pm 22:53 Clear 74 23.3 71 21.7 91 91 N N/A 30.00 1016 10 16 N/A
11:53 pm 23:53 Clear 72 22.2 70 21.1 94 94 N N/A 30.00 1016 9 14 N/A

Powered by AerisWeather